Overview Statistics Trail Chart Weather Telemetry Raw packets
 

This is the latest recevied weather packets stored in our database for station/object YO8SHU-10. If no packets are shown the sender has not sent any weather packets the latest 10 day(s).

<< 7 8 9 10 11 12 13 >>
Time Temp. Humidity Pressure Rain* Wind** Luminosity Snow
1788237036 23.33° C 78% 1021.1 hPa - - - -
1788235236 20° C 95% 1020.8 hPa - - - -
1788233436 18.89° C 100% 1020.5 hPa - - - -
1788231636 18.89° C 100% 1020.5 hPa - - - -
1788229836 19.44° C 100% 1020.7 hPa - - - -
1788228036 19.44° C 100% 1020.8 hPa - - - -
1788226235 19.44° C 99% 1020.9 hPa - - - -
1788224435 20° C 98% 1021.1 hPa - - - -
1788222635 20° C 98% 1021.2 hPa - - - -
1788220835 20° C 100% 1021.4 hPa - - - -
1788219035 20.56° C 100% 1021.3 hPa - - - -
1788217235 20.56° C 100% 1021.4 hPa - - - -
1788215435 21.11° C 100% 1021.7 hPa - - - -
1788213635 21.11° C 100% 1021.9 hPa - - - -
1788211835 21.67° C 100% 1022.1 hPa - - - -
1788210034 22.78° C 91% 1022 hPa - - - -
1788208234 23.33° C 87% 1021.9 hPa - - - -
1788206434 23.33° C 85% 1021.7 hPa - - - -
1788204634 23.89° C 84% 1021.4 hPa - - - -
1788202833 24.44° C 80% 1021.3 hPa - - - -
1788201033 24.44° C 82% 1021.4 hPa - - - -
1788199233 25° C 79% 1021.3 hPa - - - -
1788197433 26.11° C 75% 1021.1 hPa - - - -
1788195633 27.22° C 71% 1021 hPa - - - -
1788193833 30° C 59% 1020.7 hPa - - - -

* Rain since midnight (hover to see other rain measurements)
** Current wind speed in m/s (hover to see current wind gust speed)